Regional Weather Roundup
Issued by NWS Newport/Morehead, NC

Current Version | Previous Version | Graphics & Text | Print | Product List | Glossary Off
Versions: 1 2 3 4 5 6 7 8 9 10 11 12 13 14 15 16 17 18 19 20 21 22 23 24 25 26 27 28 29 30 31 32 33 34 35 36 37 38 39 40 41 42 43 44 45 46 47 48 49 50

000
ASUS42 KMHX 240213
RWRMHX
WEATHER ROUNDUP FOR EASTERN NORTH CAROLINA
NATIONAL WEATHER SERVICE NEWPORT/MOREHEAD CITY NC
900 PM EST MON JAN 23 2017

NOTE: "FAIR" INDICATES FEW OR NO CLOUDS BELOW 12,000 FEET
WITH NO SIGNIFICANT WEATHER AND/OR OBSTRUCTIONS TO VISIBILITY

NCZ015>017-031-032-045>047-102-103-240300-
NORTH COAST

CITY           SKY/WX    TMP DP  RH WIND       PRES   REMARKS
EDENTON        CLOUDY    55  51  86 N13       29.30R
ELIZABETH CITY LGT RAIN  52  50  93 NW13      29.28R
KITTY HAWK     NOT AVBL
MANTEO         CLOUDY    51  51  99 N10       29.26R

$$

NCZ045>047-081-094-103-104-240300-
CENTRAL COAST

CITY           SKY/WX    TMP DP  RH WIND       PRES   REMARKS
FRISCO         LGT RAIN  54  51  90 W5        29.26R

$$

NCZ095-097-098-100-101-240300-
SOUTHERN COAST

CITY           SKY/WX    TMP DP  RH WIND       PRES   REMARKS
BEAUFORT       LGT RAIN  55  53  93 W8        29.31R
CEDAR ISLAND   NOT AVBL
JACKSONVILLE   LGT RAIN  52  52 100 SW7       29.34R
PINEY ISLAND   CLOUDY   N/A N/A N/A W9        29.28
WILMINGTON     CLOUDY    53  52  96 W6        29.37R


$$

NCZ011>013-027>030-043-044-078>080-089-090>093-098-240300-
COASTAL PLAIN

CITY           SKY/WX    TMP DP  RH WIND       PRES   REMARKS
AHOSKIE        DRIZZLE   47  46  97 NW3       29.36R
CLINTON        PTCLDY    54  50  88 NW5       29.38R
ELIZABETHTOWN  PTCLDY    52  49  89 W5        29.38R
GOLDSBORO      CLOUDY    53  53  99 NW12      29.35R
GREENVILLE     CLOUDY    52  48  87 N12       29.40R
HAVELOCK       LGT RAIN  53  51  93 W8        29.32R
KENANSVILLE    MOCLDY    52  50  93 W3        29.36R
KINSTON        CLOUDY    54  50  87 N9        29.35R
NEW BERN       CLOUDY    53  51  93 W5        29.33R
RICHLANDS      CLOUDY    52  51  97 CALM      29.36R
ROCKY MOUNT    CLOUDY    48  45  89 NW17G25   29.38R
WASHINGTON     CLOUDY    53  49  89 NW10G17     N/A
WHITEVILLE     PTCLDY    52  49  89 CALM      29.39R

$$

AMZ130-135-150-152-154-156-158-170-250-252-270-ANZ085-086-088-633-658-670-240300-
MARINE OBSERVATIONS

STATION/POSITION TIME  TEMP    WIND        PRES    WAVE   SWELL
                       AIR SEA DIR/SP/G            HT/PER HT/PER
                 (UTC) (F)     (DEG/KT/KT) (MB)    (FT/S) (FT/S)
CHESAPEAKE LIGHT NOT AVBL
64 E VA BEACH    0150   54 55  260/  6/  8  989.1   14/12  13/12
DUCK             0124   48 46  330/  8/ 10  990.1
2 E DUCK         0130      47                N/A     8/11   7/11
OREGON INLET     0124   52 50  260/  3/  5  990.0
13E OREGON INLT  NOT AVBL
HATTERAS CG      0124   56 57  260/  7/  9  990.4
DIAMOND BUOY     0150   62 76  300/ 14/ 19  990.6    7/11   7/11
CAPE LOOKOUT     0100   55     260/  8/ 10  991.2
BEAUFORT LAB     0124   54 53  340/  6/ 10  991.2
30 SE NEW RVR IN 0108   55 68  330/ 19/ 23  992.4
30 SE NEW RVR IN 0143      68                N/A     7/ 8   3/12
27 SE WRIGHTSVLE 0108   58 67  270/ 19/ 29  991.5
5 SE WRIGHTSVLE  0108   54 54  300/ 14/ 19  993.6
225 S CAPE HAT   0050   69 71  260/ 23/ 29  993.0   14/ 9
41 SE CHARLESTON 0050   61 69  280/ 21/ 27  995.3    8/ 8   5/ 8

$$



USA.gov is the U.S. government's official web portal to all federal, state and local government web resources and services.